Everett, WA

8:55 AM PST on December 12, 2019 (GMT -0800)
Snohomish County

Weather History for KPAE - July, 2019

Change the Weather History Date:

Friday, July 19, 2019

  Actual Average Record
Temperature  
Mean Temperature 60 °F -  
Max Temperature 69 °F 76 °F 93 °F (2015)
Min Temperature 52 °F 54 °F 45 °F (1969)
Degree Days  
Heating Degree Days 4    
Growing Degree Days 10 (Base 50)    
Moisture  
Dew Point 48 °F    
Average Humidity 71    
Maximum Humidity 89    
Minimum Humidity 38    
Precipitation  
Precipitation 0.00 in - - ()
Sea Level Pressure  
Sea Level Pressure 30.13 in    
Wind  
Wind Speed 5 mph (NNW)    
Max Wind Speed 9 mph    
Max Gust Speed -    
Visibility 10 miles    
Events      
Averages and records for this station are not official NWS values.
T = Trace of Precipitation, MM = Missing Value Source: NWS Daily Summary

Daily Weather History Graph

Daily Weather History Graph

Search for Another Location

Airport or City:

Astronomy

Jul. 19, 2019 Rise Set
Actual Time 5:29 AM PDT 9:00 PM PDT
Civil Twilight 4:51 AM PDT 9:38 PM PDT
Nautical Twilight 3:59 AM PDT 10:29 PM PDT
Astronomical Twilight 2:50 AM PDT 11:38 PM PDT
Moon 10:51 PM PDT (7/19) 8:08 AM PDT (7/19)
Length of Visible Light 16h 47m
Length of Day
15h 30m
Waning Gibbous, 92% of the Moon is Illuminated
Jul 19
Waning Gibbous
Jul 24
Last Quarter
Jul 31
New
Aug 7
First Quarter
Aug 15
Full

Hourly Weather History & Observations

Time (PDT) Temp. Dew Point Humidity Pressure Visibility Wind Dir Wind Speed Gust Speed Precip Events Conditions
12:53 AM 55.0 °F 51.1 °F 86% 30.08 in 10.0 mi Variable 5.8 mph - 0.00 in   Overcast
1:53 AM 54.0 °F 50.0 °F 86% 30.08 in 10.0 mi NNE 5.8 mph - N/A   Mostly Cloudy
2:53 AM 53.1 °F 50.0 °F 89% 30.09 in 10.0 mi North 3.5 mph - N/A   Overcast
3:14 AM 53.1 °F 50.0 °F 89% 30.09 in 10.0 mi North 4.6 mph - N/A   Overcast
3:30 AM 53.1 °F 50.0 °F 89% 30.09 in 10.0 mi North 5.8 mph - N/A   Overcast
3:53 AM 53.1 °F 50.0 °F 89% 30.09 in 10.0 mi North 6.9 mph - N/A   Overcast
4:53 AM 53.1 °F 50.0 °F 89% 30.10 in 10.0 mi NNW 4.6 mph - N/A   Overcast
5:53 AM 52.0 °F 48.0 °F 86% 30.12 in 10.0 mi Variable 3.5 mph - N/A   Clear
6:53 AM 54.0 °F 48.0 °F 80% 30.13 in 10.0 mi North 3.5 mph - N/A   Scattered Clouds
7:53 AM 55.0 °F 48.0 °F 77% 30.14 in 10.0 mi North 3.5 mph - N/A   Scattered Clouds
8:53 AM 57.0 °F 48.9 °F 74% 30.16 in 10.0 mi NNE 3.5 mph - N/A   Overcast
9:53 AM 57.0 °F 50.0 °F 77% 30.17 in 10.0 mi WNW 5.8 mph - N/A   Overcast
10:04 AM 59.0 °F 51.1 °F 75% 30.17 in 10.0 mi NW 5.8 mph - N/A   Mostly Cloudy
10:53 AM 60.1 °F 51.1 °F 72% 30.17 in 10.0 mi West 5.8 mph - N/A   Mostly Cloudy
10:55 AM 59.0 °F 50.0 °F 72% 30.17 in 10.0 mi Variable 3.5 mph - N/A   Mostly Cloudy
11:53 AM 60.1 °F 51.1 °F 72% 30.17 in 10.0 mi NNW 4.6 mph - N/A   Mostly Cloudy
12:53 PM 63.0 °F 48.9 °F 60% 30.17 in 10.0 mi NW 6.9 mph - N/A   Scattered Clouds
1:53 PM 64.9 °F 45.0 °F 48% 30.16 in 10.0 mi West 5.8 mph - N/A   Clear
2:53 PM 66.0 °F 50.0 °F 56% 30.16 in 10.0 mi West 8.1 mph - N/A   Clear
3:53 PM 66.9 °F 46.9 °F 49% 30.16 in 10.0 mi North 5.8 mph - N/A   Clear
4:53 PM 69.1 °F 42.1 °F 38% 30.15 in 10.0 mi North 8.1 mph - N/A   Clear
5:53 PM 66.9 °F 43.0 °F 42% 30.14 in 10.0 mi North 9.2 mph - N/A   Clear
6:53 PM 66.0 °F 44.1 °F 45% 30.13 in 10.0 mi North 6.9 mph - N/A   Clear
7:53 PM 62.1 °F 45.0 °F 53% 30.13 in 10.0 mi NNW 6.9 mph - N/A   Clear
8:53 PM 59.0 °F 46.0 °F 62% 30.12 in 10.0 mi North 5.8 mph - N/A   Clear
9:53 PM 57.0 °F 48.9 °F 74% 30.14 in 10.0 mi Variable 3.5 mph - N/A   Clear
10:53 PM 55.9 °F 50.0 °F 80% 30.14 in 10.0 mi North 8.1 mph - N/A   Clear
11:53 PM 54.0 °F 50.0 °F 86% 30.14 in 10.0 mi North 4.6 mph - N/A   Clear